#timestamp,LO_Frequency,Hit,StdDev 
1543356015.0,286046995.5,N
1543356015.9,286046995.5,N
1543356035.8,286046995.1,Y
1543356055.6,286046996.5,P
1543356075.5,286046999.6,P
1543356095.3,286047000.6,N
1543356115.1,286046998.5,N
1543356135.9,286046998.5,N
1543356155.7,286046998.5,N
1543356175.5,286046999.4,N
1543356195.4,286046998.7,N
1543356215.2,286046996.5,N
1543356235.1,286046998.3,N
1543356236.0,286046998.3,N
1543356255.8,286046998.9,N
1543356275.6,286046998.0,N
1543356295.5,286046996.9,N
1543356315.3,286046996.7,N
1543356335.1,286046998.0,N
1543356355.9,286046995.4,Y
1543356375.7,286046999.4,P
1543356395.6,286046997.4,P
1543356415.4,286046997.3,P
1543356435.2,286046999.3,N
1543356455.1,286046999.3,N
1543356456.0,286046999.3,N
1543356475.8,286046996.8,Y
1543356495.7,286046996.8,P
1543356515.5,286046998.6,N
1543356535.3,286046998.2,N
1543356555.2,286046999.5,N
1543356575.0,286046999.2,N
1543356575.9,286046999.2,N
1543356595.7,286046997.5,Y
1543356615.6,286046997.4,P
1543356635.4,286046999.3,N
1543356655.3,286046999.3,N
1543356675.1,286047000.3,N
1543356676.0,286047000.3,N
1543356695.8,286046999.9,N
1543356715.7,286046997.1,Y
1543356735.5,286046999.6,P
1543356755.4,286046999.5,P
1543356775.2,286046998.9,P
1543356795.0,286046996.9,Y
1543356795.9,286046996.9,P
1543356815.8,286046998.6,N
1543356835.6,286047000.2,N
1543356855.4,286046998.3,N
1543356875.3,286046999.3,N
1543356895.1,286046996.6,Y
1543356915.9,286046998.5,P
1543356935.7,286046998.3,P
1543356955.5,286047001.2,P
1543356975.4,286046999.8,N
1543356995.2,286046998.1,N
1543357015.0,286046999.7,N
1543357015.9,286046999.7,N
1543357035.8,286046999.8,N
1543357055.6,286047001.1,N
1543357075.5,286047000.0,N
1543357095.3,286047000.3,N
1543357115.1,286046998.4,N
1543357135.9,286046999.6,N
1543357155.7,286046999.6,N
1543357175.6,286046995.4,Y
1543357195.4,286046997.1,P
1543357215.2,286046997.4,N
1543357235.1,286046999.6,N
1543357236.0,286046999.6,N
1543357255.8,286046997.8,N
1543357275.7,286046996.0,Y
1543357295.5,286046997.2,P
1543357315.3,286046999.6,N
1543357335.2,286046997.8,N
1543357355.0,286046996.9,Y
1543357355.9,286046996.9,P
1543357375.8,286047000.4,N
1543357395.6,286047002.8,N
1543357415.4,286047000.5,N
1543357435.3,286046998.3,N
1543357455.1,286046998.1,N
1543357475.8,286047000.8,N
1543357495.7,286047002.7,N
1543357515.5,286047002.6,N
1543357535.4,286047000.7,N
1543357555.2,286046998.6,N
1543357575.0,286046999.4,N
1543357575.9,286046999.4,N
1543357595.8,286046998.3,N
1543357615.6,286046998.8,N
1543357635.4,286046997.0,N
1543357655.3,286046997.4,N
1543357675.1,286046995.4,N
1543357695.9,286046997.0,N
1543357715.7,286046999.2,N
1543357735.5,286046995.0,N
1543357755.4,286046997.1,N
1543357775.2,286046996.5,N
1543357795.0,286046995.1,N
1543357795.9,286046995.1,N
1543357815.8,286046995.6,N
1543357835.6,286046995.4,N
1543357855.5,286046997.1,N
1543357875.3,286046994.9,N
1543357895.1,286046995.3,N
1543357915.9,286046995.5,N
1543357935.7,286046995.2,N
1543357955.5,286046995.0,N
1543357975.4,286046997.7,N
1543357995.2,286046997.6,N
1543358015.1,286046995.3,N
1543358016.0,286046995.3,N
1543358035.8,286046995.9,N
1543358055.6,286046990.4,Y
1543358075.5,286046994.5,P
1543358095.3,286046990.9,P
1543358115.1,286046991.6,P
1543358135.9,286046991.0,Y
1543358155.7,286046996.7,P
1543358175.6,286046997.0,N
1543358195.4,286046995.3,N
1543358215.2,286046995.3,Y
1543358235.1,286047002.1,P
1543358236.0,286047002.1,N
1543358255.8,286047001.5,N
1543358275.7,286047001.7,N
1543358295.5,286047005.6,N
1543358315.3,286047006.0,N
1543358335.2,286047005.7,N
1543358355.0,286047004.2,N
1543358355.9,286047004.2,N
1543358375.8,286047001.7,N
1543358395.6,286047005.9,N
1543358415.4,286047001.5,N
1543358435.3,286047004.3,N
1543358455.1,286047003.3,N
1543358475.8,286047005.4,N
1543358495.7,286047004.3,N
1543358515.5,286047002.2,N
1543358535.4,286047004.2,N
1543358555.2,286047006.0,N
1543358575.0,286047002.2,N
1543358575.9,286047002.2,N
1543358595.8,286047002.6,N
1543358615.6,286047002.7,N
1543358635.4,286047002.0,N
1543358655.3,286047005.9,N
1543358675.1,286047002.4,N
1543358695.9,286047002.5,N
1543358715.7,286046999.7,N
1543358735.5,286047000.2,N
1543358755.4,286047002.1,N
1543358775.2,286047001.6,N
1543358795.0,286046999.9,N
1543358795.9,286046999.9,N
1543358815.8,286047002.8,N
1543358835.6,286047001.3,N
1543358855.5,286046999.9,N
1543358875.3,286047001.5,N
1543358895.1,286047000.0,N
1543358915.9,286047000.3,N
1543358935.7,286047002.3,N
1543358955.5,286047002.0,N
1543358975.4,286046999.7,N
1543358995.2,286046999.7,N
1543359015.0,286047002.5,N
1543359016.0,286047002.5,N
1543359035.8,286047001.7,N
1543359055.6,286047002.5,N
1543359075.5,286047004.3,N
1543359095.3,286047002.1,N
1543359115.1,286047002.1,N
1543359135.9,286047002.2,N
1543359155.7,286047002.4,N
1543359175.5,286047002.6,N
1543359195.4,286047002.6,N
1543359215.2,286047002.4,N
1543359235.1,286047000.2,N
1543359236.0,286047000.2,N
1543359255.8,286047000.1,N
1543359275.6,286047002.5,N
1543359295.5,286047002.4,N
1543359315.3,286047000.2,N
1543359335.1,286047000.1,N
1543359355.9,286047000.2,N
1543359375.7,286047000.6,N
1543359395.6,286047000.3,N
1543359415.4,286047000.3,N
1543359435.2,286047000.3,N
1543359455.1,286046999.8,N
1543359456.0,286046999.8,N
1543359475.8,286047000.4,N
1543359495.6,286047000.8,N
1543359515.5,286046998.2,N
1543359535.3,286047000.9,N
1543359555.1,286047002.0,N
1543359575.9,286046999.7,N
1543359595.7,286047000.2,N
